Stations météo

réclame
Mon MeteoGroup
Aboyne, Grande-Bretagne (3080): Température de l'air & dewpoint: 26.11.2020 11:00:00 - 02.12.2020 11:00:00 (GMT)Aboyne, Grande-Bretagne (3080): Température de l'air -20cm & Température de l'air -100cm: 26.11.2020 11:00:00 - 02.12.2020 11:00:00 (GMT)Aboyne, Grande-Bretagne (3080): Vitesse du vent & gusts: 26.11.2020 11:00:00 - 02.12.2020 11:00:00 (GMT)Aboyne, Grande-Bretagne (3080): Direction du vent: 26.11.2020 11:00:00 - 02.12.2020 11:00:00 (GMT)Aboyne, Grande-Bretagne (3080): reduced air pressure: 26.11.2020 11:00:00 - 02.12.2020 11:00:00 (GMT)Aboyne, Grande-Bretagne (3080): visibility: 26.11.2020 11:00:00 - 02.12.2020 11:00:00 (GMT)Aboyne, Grande-Bretagne (3080): Quantités de précipitations: 26.11.2020 11:00:00 - 02.12.2020 11:00:00 (GMT)
Date & Time tt [°C] td [°C] tt -20cm [°C] tt -100cm [°C] ff [km/h] ff [knt] fx [km/h] fx [knt] dd ppp [hPa] vv [km] rr [mm]
02.12.2020 11:00:00 5,3 0,6 - - 11 6 - - SW 1010,2 60 -
02.12.2020 10:00:00 4,5 1,4 - - 18 10 - - W 1011,0 75 0,0
02.12.2020 09:00:00 1,6 1,1 4,0 6,7 11 6 - - W 1012,1 40 0,0
02.12.2020 08:00:00 2,8 2,7 - - 5 3 - - ENE 1012,3 40 0,0
02.12.2020 07:00:00 0,9 0,8 - - 4 2 - - SSW 1013,0 8 0,0
02.12.2020 06:00:00 -1,0 -1,1 - - 4 2 - - SE 1012,9 12 0,0
02.12.2020 05:00:00 -0,2 -0,3 - - 4 2 - - NE 1013,3 25 0,0
02.12.2020 04:00:00 -1,1 -1,2 - - 5 3 - - E 1014,8 18 0,0
02.12.2020 03:00:00 -2,0 -2,3 - - 5 3 - - E 1015,8 21 0,0
02.12.2020 02:00:00 0,5 0,4 - - 5 3 - - W 1016,9 30 0,0
02.12.2020 01:00:00 -0,7 -0,8 - - 5 3 - - WSW 1017,9 19 0,0
02.12.2020 00:00:00 -2,2 -2,5 - - 2 1 - - SSE 1018,9 13 0,0
01.12.2020 23:00:00 0,1 0,1 - - 8 4 - - WNW 1019,1 35 0,0
01.12.2020 22:00:00 -1,1 -1,2 - - 8 4 - - ENE 1019,8 7 0,0
01.12.2020 21:00:00 -2,0 -2,3 - - 4 2 - - W 1020,5 14 0,0
01.12.2020 20:00:00 -0,3 -0,5 - - 4 2 - - NNE 1021,0 23 0,0
01.12.2020 19:00:00 0,0 -0,2 - - 5 3 - - E 1021,5 6 0,0
01.12.2020 18:00:00 0,1 -0,1 - - 5 3 - - E 1021,8 5 0,0
01.12.2020 17:00:00 0,2 -0,1 - - 4 2 - - ENE 1022,0 26 0,0
01.12.2020 16:00:00 0,2 -0,7 - - 4 2 - - E 1022,7 18 0,0
01.12.2020 15:00:00 2,0 0,4 - - 2 1 - - NE 1023,1 21 0,0
01.12.2020 14:00:00 3,1 1,2 - - 5 3 - - E 1023,7 16 0,0
01.12.2020 13:00:00 3,6 2,5 - - 5 3 - - ESE 1024,6 30 0,0
01.12.2020 12:00:00 3,3 2,2 - - 4 2 - - E 1025,2 35 0,0
01.12.2020 11:00:00 2,1 1,6 - - 8 4 - - E 1026,1 30 0,0
01.12.2020 10:00:00 0,6 0,5 - - 2 1 - - W 1026,3 40 0,0
01.12.2020 09:00:00 -0,8 -0,9 4,2 6,9 2 1 - - NE 1026,6 35 0,0
01.12.2020 08:00:00 -2,0 -2,2 - - 0 0 - - N 1026,6 28 0,0
01.12.2020 07:00:00 -2,1 -2,3 - - 2 1 - - W 1026,8 40 0,0
01.12.2020 06:00:00 -1,8 -2,1 - - 4 2 - - W 1026,6 45 0,0
01.12.2020 05:00:00 -1,8 -2,1 - - 4 2 - - N 1026,5 45 0,0
01.12.2020 04:00:00 -1,3 -2,1 - - 0 0 - - N 1026,2 40 0,0
01.12.2020 03:00:00 -0,2 -0,6 - - 8 4 - - NW 1026,0 45 0,0
01.12.2020 02:00:00 -0,8 -2,1 - - 2 1 - - WNW 1025,7 45 0,0
01.12.2020 01:00:00 1,9 0,7 - - 9 5 - - WSW 1025,2 40 0,0
01.12.2020 00:00:00 3,2 1,2 - - 13 7 - - W 1024,7 45 0,0
30.11.2020 23:00:00 4,0 1,5 - - 13 7 - - WNW 1024,1 45 0,0
30.11.2020 22:00:00 4,2 1,8 - - 18 10 - - W 1023,5 40 0,0
30.11.2020 21:00:00 4,3 2,1 - - 18 10 - - W 1022,7 45 0,0
30.11.2020 20:00:00 4,5 2,6 - - 15 8 - - W 1022,0 50 0,0
30.11.2020 19:00:00 4,5 2,4 - - 11 6 - - W 1021,1 55 0,0
30.11.2020 18:00:00 5,1 2,6 - - 11 6 - - WNW 1019,5 65 0,0
30.11.2020 17:00:00 5,5 2,4 - - 16 9 - - WNW 1018,5 40 0,0
30.11.2020 16:00:00 5,5 1,6 - - 22 12 48 26 WNW 1017,1 55 0,0
30.11.2020 15:00:00 6,0 2,1 - - 21 11 - - WNW 1016,3 45 0,0
30.11.2020 14:00:00 6,2 2,1 - - 16 9 46 25 WNW 1015,2 45 0,0
30.11.2020 13:00:00 6,5 2,8 - - 28 15 48 26 WNW 1014,3 55 0,2
30.11.2020 12:00:00 7,3 4,7 - - 22 12 48 26 WNW 1012,8 75 0,0
30.11.2020 11:00:00 9,2 6,0 - - 24 13 - - WNW 1011,4 75 0,2
30.11.2020 10:00:00 9,4 6,8 - - 13 7 - - W 1010,3 75 0,0
30.11.2020 09:00:00 9,1 6,0 4,2 7,0 16 9 - - W 1010,3 75 0,0
30.11.2020 08:00:00 6,7 4,9 - - 5 3 - - SW 1011,1 75 0,0
30.11.2020 07:00:00 8,1 5,0 - - 4 2 - - WSW 1012,0 75 0,0
30.11.2020 06:00:00 7,4 5,5 - - 8 4 - - W 1012,7 75 0,0
30.11.2020 05:00:00 5,8 4,7 - - 4 2 - - WNW 1013,7 75 0,0
30.11.2020 04:00:00 3,2 3,2 - - 5 3 - - E 1014,9 7 0,0
30.11.2020 03:00:00 2,3 2,3 - - 2 1 - - WSW 1016,4 3,3 0,2
30.11.2020 02:00:00 2,1 2,1 - - 2 1 - - E 1017,7 2,3 0,8
30.11.2020 01:00:00 1,6 1,5 - - 2 1 - - NNE 1018,5 3,7 0,4
30.11.2020 00:00:00 1,2 1,2 - - 4 2 - - NE 1019,6 6 0,0
29.11.2020 23:00:00 0,5 0,4 - - 11 6 - - E 1020,2 5 0,0
29.11.2020 22:00:00 0,2 0,1 - - 8 4 - - E 1021,0 5 0,0
29.11.2020 21:00:00 -1,2 -1,3 - - 8 4 - - ESE 1021,7 7 0,0
29.11.2020 20:00:00 -1,8 -2,1 - - 4 2 - - SSE 1022,4 7 0,0
29.11.2020 19:00:00 -1,8 -2,1 - - 9 5 - - ESE 1022,6 5 0,0
29.11.2020 18:00:00 -0,9 -1,4 - - 2 1 - - WSW 1023,0 10 0,0
29.11.2020 17:00:00 0,4 -0,4 - - 4 2 - - ENE 1023,1 23 0,0
29.11.2020 16:00:00 3,8 1,8 - - 2 1 - - ENE 1022,9 40 0,0
29.11.2020 15:00:00 6,5 3,4 - - 15 8 - - WNW 1023,0 65 0,0
29.11.2020 14:00:00 6,4 3,1 - - 15 8 - - W 1023,4 60 0,0
29.11.2020 13:00:00 5,5 3,1 - - 9 5 - - W 1023,8 50 0,2
29.11.2020 12:00:00 3,4 2,0 - - 2 1 - - S 1024,6 35 0,0
29.11.2020 11:00:00 0,7 0,2 - - 5 3 - - SW 1025,2 30 0,0
29.11.2020 10:00:00 -1,6 -1,7 - - 8 4 - - WNW 1025,6 30 0,0
29.11.2020 09:00:00 -4,5 -4,9 4,7 7,2 5 3 - - W 1026,2 29 0,0
29.11.2020 08:00:00 -5,4 -6,1 - - 2 1 - - ESE 1026,2 30 0,0
29.11.2020 07:00:00 -4,0 -4,4 - - 2 1 - - NE 1025,8 40 0,0
29.11.2020 06:00:00 -2,7 -2,7 - - 9 5 - - WNW 1025,7 35 0,0
29.11.2020 05:00:00 -5,1 -5,6 - - 5 3 - - W 1025,7 35 0,0
29.11.2020 04:00:00 -5,9 -6,5 - - 2 1 - - S 1025,7 45 0,0
29.11.2020 03:00:00 -5,6 -6,3 - - 2 1 - - S 1025,9 45 0,0
29.11.2020 02:00:00 -4,8 -5,4 - - 2 1 - - W 1026,1 40 0,0
29.11.2020 01:00:00 -3,2 -3,5 - - 5 3 - - WSW 1026,4 45 0,0
29.11.2020 00:00:00 -4,7 -5,1 - - 4 2 - - W 1026,7 35 0,0
28.11.2020 23:00:00 -4,1 -4,3 - - 9 5 - - W 1026,7 40 0,0
28.11.2020 22:00:00 -5,0 -5,5 - - 4 2 - - W 1026,4 40 0,0
28.11.2020 21:00:00 -3,9 -4,4 - - 4 2 - - W 1026,0 40 0,0
28.11.2020 20:00:00 -3,8 -4,2 - - 0 0 - - N 1025,5 24 0,0
28.11.2020 19:00:00 -2,3 -2,5 - - 5 3 - - WNW 1024,8 35 0,0
28.11.2020 18:00:00 -2,5 -3,0 - - 5 3 - - W 1024,2 50 0,0
28.11.2020 17:00:00 -1,5 -2,1 - - 4 2 - - W 1023,8 35 0,0
28.11.2020 16:00:00 0,3 -1,0 - - 4 2 - - E 1023,2 55 0,0
28.11.2020 15:00:00 3,3 0,5 - - 8 4 - - E 1022,3 75 0,0
28.11.2020 14:00:00 7,4 1,8 - - 4 2 - - SW 1021,5 75 0,0
28.11.2020 13:00:00 7,1 2,4 - - 8 4 - - W 1021,3 75 0,0
28.11.2020 12:00:00 5,9 2,3 - - 11 6 - - W 1021,1 75 0,0
28.11.2020 11:00:00 5,1 2,7 - - 11 6 - - WNW 1021,2 60 0,0
28.11.2020 10:00:00 0,4 0,4 - - 4 2 - - E 1020,9 30 0,0
28.11.2020 09:00:00 -1,7 -1,8 5,0 7,5 4 2 - - W 1020,5 24 0,0
28.11.2020 08:00:00 -2,8 -3,0 - - 5 3 - - W 1019,8 40 0,0
28.11.2020 07:00:00 -3,1 -3,5 - - 4 2 - - W 1019,0 35 0,0
28.11.2020 06:00:00 -2,7 -3,1 - - 4 2 - - E 1018,2 30 0,0
28.11.2020 05:00:00 -1,7 -2,0 - - 8 4 - - E 1017,5 30 0,0
28.11.2020 04:00:00 -0,9 -1,4 - - 8 4 - - E 1017,1 60 0,0
28.11.2020 03:00:00 0,0 -1,0 - - 5 3 - - ENE 1016,9 60 0,0
28.11.2020 02:00:00 2,6 0,4 - - 8 4 - - E 1016,7 75 0,0
28.11.2020 01:00:00 4,6 1,1 - - 11 6 - - W 1016,5 65 0,0
28.11.2020 00:00:00 2,4 1,4 - - 2 1 - - W 1016,8 70 0,0
27.11.2020 23:00:00 0,6 0,4 - - 4 2 - - E 1016,4 75 0,0
27.11.2020 22:00:00 1,0 0,4 - - 8 4 - - E 1016,7 50 0,0
27.11.2020 21:00:00 4,3 2,2 - - 8 4 - - SSW 1016,5 75 0,0
27.11.2020 20:00:00 4,2 4,0 - - 11 6 - - ENE 1016,8 9 0,2
27.11.2020 19:00:00 3,8 3,4 - - 5 3 - - ESE 1016,8 1,8 0,2
27.11.2020 18:00:00 4,0 3,5 - - 5 3 - - SE 1016,7 20 0,0
27.11.2020 17:00:00 4,2 3,5 - - 8 4 - - E 1016,8 40 0,0
27.11.2020 16:00:00 4,5 3,9 - - 8 4 - - E 1016,7 21 0,0
27.11.2020 15:00:00 5,4 4,2 - - 5 3 - - E 1016,6 45 0,0
27.11.2020 14:00:00 6,6 4,9 - - 4 2 - - SSE 1016,8 75 0,0
27.11.2020 13:00:00 7,0 5,2 - - 2 1 - - S 1017,1 65 0,0
27.11.2020 12:00:00 5,7 3,6 - - 2 1 - - SSE 1017,5 55 0,0
27.11.2020 11:00:00 2,8 1,8 - - 2 1 - - ESE 1018,2 50 0,0
27.11.2020 10:00:00 2,4 2,4 - - 0 0 - - N 1018,6 45 0,0
27.11.2020 09:00:00 0,2 0,0 5,2 7,7 8 4 - - WSW 1018,8 30 0,0
27.11.2020 08:00:00 -0,1 -0,2 - - 9 5 - - WSW 1018,7 40 0,0
27.11.2020 07:00:00 -0,6 -0,7 - - 4 2 - - WSW 1018,8 35 0,0
27.11.2020 06:00:00 -1,1 -1,2 - - 0 0 - - N 1018,6 40 0,0
27.11.2020 05:00:00 -1,2 -1,4 - - 2 1 - - W 1018,7 40 0,0
27.11.2020 04:00:00 -1,7 -1,9 - - 5 3 - - W 1018,9 35 0,0
27.11.2020 03:00:00 -3,4 -3,6 - - 4 2 - - W 1019,3 50 0,0
27.11.2020 02:00:00 -4,0 -4,3 - - 8 4 - - W 1019,7 40 0,0
27.11.2020 01:00:00 -3,9 -4,2 - - 5 3 - - WSW 1019,7 28 0,0
27.11.2020 00:00:00 -3,1 -3,5 - - 8 4 - - W 1019,8 35 0,0
26.11.2020 23:00:00 -2,0 -2,1 - - 8 4 - - WNW 1020,0 35 0,0
26.11.2020 22:00:00 -2,9 -3,0 - - 8 4 - - WNW 1019,9 40 0,0
26.11.2020 21:00:00 -4,2 -4,7 - - 2 1 - - E 1019,4 30 0,0
26.11.2020 20:00:00 -3,4 -3,7 - - 5 3 - - W 1019,2 28 0,0
26.11.2020 19:00:00 -2,7 -2,8 - - 5 3 - - W 1019,3 1,8 0,0
26.11.2020 18:00:00 -2,5 -2,9 - - 4 2 - - E 1019,3 0,3 0,0
26.11.2020 17:00:00 -1,8 -2,6 - - 4 2 - - E 1019,2 50 0,0
26.11.2020 16:00:00 0,0 -1,1 - - 0 0 - - N 1018,9 50 0,0
26.11.2020 15:00:00 3,7 1,6 - - 2 1 - - W 1018,3 65 0,0
26.11.2020 14:00:00 4,1 1,9 - - 2 1 - - E 1018,7 75 0,0
26.11.2020 13:00:00 6,1 2,4 - - 5 3 - - ESE 1018,6 75 0,0
26.11.2020 12:00:00 5,3 4,6 - - 4 2 - - WSW 1019,1 75 0,0
26.11.2020 11:00:00 2,9 2,9 - - 2 1 - - SSW 1019,5 65 0,0

tt = Température de l'air
td = dewpoint
tt -20cm = Température de l'air -20cm
tt -100cm = Température de l'air -100cm
ff = Vitesse du vent
fx = gusts
dd = Direction du vent
ppp = reduced air pressure
vv = visibility
rr = Quantités de précipitations

stations d'obs. à proximité